This is the latest recevied weather packets stored in our database for station/object DB0ADS-6. If no packets are shown the sender has not sent any weather packets the latest 10 day(s).
| Time | Temp. | Humidity | Pressure | Rain* | Wind** | Luminosity | Snow |
|---|---|---|---|---|---|---|---|
| 1777939270 | 13.33° C | 81% | 1009.7 hPa | 0 mm | - | - | - |
| 1777938988 | 13.89° C | 78% | 1009.8 hPa | 0 mm | - | - | - |
| 1777938667 | 13.89° C | 75% | 1009.8 hPa | 0 mm | - | - | - |
| 1777938365 | 14.44° C | 71% | 1009.8 hPa | 0 mm | - | - | - |
| 1777938063 | 15° C | 70% | 1009.8 hPa | 0 mm | - | - | - |
| 1777937762 | 15° C | 68% | 1009.8 hPa | 0 mm | - | - | - |
| 1777937460 | 15° C | 67% | 1009.8 hPa | 0 mm | - | - | - |
| 1777937178 | 15° C | 67% | 1009.6 hPa | 0 mm | - | - | - |
| 1777936876 | 15° C | 66% | 1009.7 hPa | 0 mm | - | - | - |
| 1777936554 | 15° C | 67% | 1009.7 hPa | 0 mm | - | - | - |
| 1777936252 | 15° C | 66% | 1009.9 hPa | 0 mm | - | - | - |
| 1777935951 | 15° C | 66% | 1009.9 hPa | 0 mm | - | - | - |
| 1777935650 | 15.56° C | 66% | 1009.9 hPa | 0 mm | - | - | - |
| 1777935350 | 15.56° C | 64% | 1010 hPa | 0 mm | - | - | - |
| 1777935046 | 15.56° C | 64% | 1010 hPa | 0 mm | - | - | - |
| 1777934744 | 15.56° C | 64% | 1010 hPa | 0 mm | - | - | - |
| 1777934442 | 15.56° C | 64% | 1010.1 hPa | 0 mm | - | - | - |
| 1777934140 | 15.56° C | 63% | 1010.1 hPa | 0 mm | - | - | - |
| 1777933839 | 15.56° C | 64% | 1010.1 hPa | 0 mm | - | - | - |
| 1777933537 | 15.56° C | 64% | 1010.1 hPa | 0 mm | - | - | - |
| 1777933236 | 16.11° C | 63% | 1010.1 hPa | 0 mm | - | - | - |
| 1777932933 | 16.11° C | 63% | 1010 hPa | 0 mm | - | - | - |
| 1777932632 | 16.11° C | 63% | 1010.1 hPa | 0 mm | - | - | - |
| 1777932330 | 16.11° C | 63% | 1010.1 hPa | 0 mm | - | - | - |
| 1777932029 | 16.11° C | 63% | 1010.2 hPa | 0 mm | - | - | - |
* Rain latest hour (hover to see other rain measurements)
** Current wind speed in m/s (hover to see current wind gust speed)